TimeAKDT,TemperatureF,Dew PointF,Humidity,Sea Level PressureIn,VisibilityMPH,Wind Direction,Wind SpeedMPH,Gust SpeedMPH,PrecipitationIn,Events,Conditions,WindDirDegrees,DateUTC
12:16 AM,37.4,19.4,48,29.95,10.0,NE,13.8,23.0,N/A,,Partly Cloudy,40,2012-10-21 08:16:00
12:36 AM,35.6,19.4,52,29.95,10.0,NE,12.7,19.6,N/A,,Partly Cloudy,40,2012-10-21 08:36:00
12:56 AM,35.6,19.4,52,29.96,10.0,NNE,12.7,21.9,N/A,,Clear,30,2012-10-21 08:56:00
1:16 AM,35.6,19.4,52,29.96,10.0,NNE,10.4,23.0,N/A,,Clear,30,2012-10-21 09:16:00
1:36 AM,35.6,17.6,48,29.96,10.0,NNE,10.4,20.7,N/A,,Clear,20,2012-10-21 09:36:00
1:56 AM,35.6,17.6,48,29.96,10.0,NNE,13.8,21.9,N/A,,Clear,30,2012-10-21 09:56:00
2:16 AM,35.6,17.6,48,29.97,10.0,NNE,11.5,20.7,N/A,,Clear,30,2012-10-21 10:16:00
2:36 AM,35.6,17.6,48,29.97,10.0,NNE,13.8,24.2,N/A,,Clear,30,2012-10-21 10:36:00
2:56 AM,35.6,17.6,48,29.97,10.0,NE,13.8,20.7,N/A,,Clear,40,2012-10-21 10:56:00
3:16 AM,35.6,17.6,48,29.97,10.0,NNE,12.7,20.7,N/A,,Clear,30,2012-10-21 11:16:00
3:36 AM,35.6,17.6,48,29.98,10.0,NNE,11.5,26.5,N/A,,Clear,20,2012-10-21 11:36:00
3:56 AM,35.6,17.6,48,29.98,10.0,NNE,12.7,21.9,N/A,,Clear,30,2012-10-21 11:56:00
4:16 AM,35.6,17.6,48,29.99,10.0,NNE,11.5,20.7,N/A,,Clear,30,2012-10-21 12:16:00
4:36 AM,35.6,17.6,48,29.99,10.0,NNE,10.4,21.9,N/A,,Clear,20,2012-10-21 12:36:00
4:56 AM,35.6,19.4,52,29.99,10.0,NNE,11.5,21.9,N/A,,Clear,30,2012-10-21 12:56:00
5:16 AM,35.6,19.4,52,30.00,10.0,NNE,9.2,24.2,N/A,,Clear,20,2012-10-21 13:16:00
5:36 AM,35.6,19.4,52,30.00,10.0,NNE,12.7,20.7,N/A,,Clear,20,2012-10-21 13:36:00
5:56 AM,35.6,19.4,52,30.01,10.0,NE,9.2,20.7,N/A,,Clear,40,2012-10-21 13:56:00
6:16 AM,35.6,19.4,52,30.01,10.0,NNE,11.5,17.3,N/A,,Scattered Clouds,30,2012-10-21 14:16:00
6:36 AM,35.6,19.4,52,30.02,10.0,NNE,9.2,17.3,N/A,,Partly Cloudy,30,2012-10-21 14:36:00
6:56 AM,35.6,19.4,52,30.02,10.0,North,9.2,21.9,N/A,,Mostly Cloudy,10,2012-10-21 14:56:00
7:16 AM,37.4,19.4,48,30.03,10.0,NNE,12.7,19.6,N/A,,Overcast,30,2012-10-21 15:16:00
7:36 AM,37.4,17.6,45,30.03,10.0,North,6.9,18.4,N/A,,Overcast,10,2012-10-21 15:36:00
7:56 AM,37.4,19.4,48,30.03,10.0,NNE,4.6,20.7,N/A,,Overcast,20,2012-10-21 15:56:00
8:16 AM,35.6,19.4,52,30.04,10.0,North,5.8,17.3,N/A,,Mostly Cloudy,10,2012-10-21 16:16:00
8:36 AM,35.6,17.6,48,30.04,10.0,NNE,5.8,-,N/A,,Partly Cloudy,20,2012-10-21 16:36:00
8:56 AM,37.4,17.6,45,30.05,10.0,NNE,9.2,19.6,N/A,,Clear,30,2012-10-21 16:56:00
9:16 AM,37.4,17.6,45,30.05,10.0,NNE,6.9,18.4,N/A,,Clear,20,2012-10-21 17:16:00
9:36 AM,37.4,17.6,45,30.05,10.0,North,9.2,21.9,N/A,,Clear,10,2012-10-21 17:36:00
9:56 AM,37.4,17.6,45,30.05,10.0,North,6.9,19.6,N/A,,Clear,10,2012-10-21 17:56:00
10:16 AM,37.4,17.6,45,30.06,10.0,North,9.2,21.9,N/A,,Clear,360,2012-10-21 18:16:00
10:36 AM,37.4,17.6,45,30.06,10.0,North,13.8,19.6,N/A,,Clear,10,2012-10-21 18:36:00
10:56 AM,37.4,17.6,45,30.06,10.0,North,11.5,26.5,N/A,,Clear,10,2012-10-21 18:56:00
11:16 AM,39.2,17.6,42,30.07,10.0,NE,11.5,21.9,N/A,,Clear,40,2012-10-21 19:16:00
11:36 AM,39.2,17.6,42,30.07,10.0,NNE,8.1,20.7,N/A,,Clear,30,2012-10-21 19:36:00
11:56 AM,39.2,17.6,42,30.07,10.0,North,9.2,23.0,N/A,,Clear,10,2012-10-21 19:56:00
12:16 PM,39.2,17.6,42,30.07,10.0,North,15.0,18.4,N/A,,Clear,10,2012-10-21 20:16:00
12:36 PM,39.2,17.6,42,30.07,10.0,NNE,10.4,19.6,N/A,,Clear,30,2012-10-21 20:36:00
12:56 PM,39.2,17.6,42,30.08,10.0,North,9.2,21.9,N/A,,Clear,360,2012-10-21 20:56:00
1:16 PM,39.2,17.6,42,30.07,10.0,North,11.5,18.4,N/A,,Clear,360,2012-10-21 21:16:00
1:36 PM,39.2,17.6,42,30.08,10.0,North,11.5,19.6,N/A,,Clear,360,2012-10-21 21:36:00
1:56 PM,39.2,17.6,42,30.07,10.0,North,10.4,23.0,N/A,,Clear,10,2012-10-21 21:56:00
2:16 PM,41.0,17.6,39,30.08,10.0,NNW,12.7,19.6,N/A,,Clear,340,2012-10-21 22:16:00
2:36 PM,41.0,17.6,39,30.08,10.0,NNW,6.9,18.4,N/A,,Clear,340,2012-10-21 22:36:00
2:56 PM,41.0,17.6,39,30.08,10.0,North,10.4,17.3,N/A,,Clear,360,2012-10-21 22:56:00
3:16 PM,41.0,17.6,39,30.08,10.0,North,13.8,19.6,N/A,,Clear,350,2012-10-21 23:16:00
3:36 PM,39.2,17.6,42,30.08,10.0,North,10.4,16.1,N/A,,Clear,360,2012-10-21 23:36:00
3:56 PM,39.2,17.6,42,30.08,10.0,North,6.9,16.1,N/A,,Clear,350,2012-10-21 23:56:00
4:16 PM,39.2,17.6,42,30.08,10.0,NNE,4.6,-,N/A,,Clear,30,2012-10-22 00:16:00
4:36 PM,39.2,17.6,42,30.08,10.0,North,4.6,16.1,N/A,,Clear,360,2012-10-22 00:36:00
4:56 PM,39.2,17.6,42,30.08,10.0,North,5.8,-,N/A,,Clear,360,2012-10-22 00:56:00
5:16 PM,39.2,17.6,42,30.08,10.0,North,6.9,17.3,N/A,,Clear,350,2012-10-22 01:16:00
5:56 PM,37.4,17.6,45,30.09,10.0,NNE,6.9,-,N/A,,Clear,20,2012-10-22 01:56:00
6:16 PM,37.4,17.6,45,30.08,10.0,North,8.1,21.9,N/A,,Clear,10,2012-10-22 02:16:00
6:36 PM,37.4,17.6,45,30.09,10.0,North,5.8,16.1,N/A,,Clear,10,2012-10-22 02:36:00
6:56 PM,37.4,17.6,45,30.09,10.0,North,10.4,18.4,N/A,,Clear,10,2012-10-22 02:56:00
7:16 PM,37.4,19.4,48,30.09,10.0,North,8.1,16.1,N/A,,Clear,10,2012-10-22 03:16:00
7:36 PM,37.4,19.4,48,30.08,10.0,North,6.9,-,N/A,,Clear,10,2012-10-22 03:36:00
7:56 PM,39.2,19.4,45,30.08,10.0,NNE,5.8,17.3,N/A,,Clear,20,2012-10-22 03:56:00
8:16 PM,37.4,19.4,48,30.08,10.0,North,6.9,-,N/A,,Clear,360,2012-10-22 04:16:00
8:36 PM,37.4,17.6,45,30.08,10.0,NNW,4.6,-,N/A,,Clear,340,2012-10-22 04:36:00
8:56 PM,37.4,17.6,45,30.09,10.0,NNE,8.1,-,N/A,,Clear,20,2012-10-22 04:56:00
9:16 PM,37.4,17.6,45,30.08,10.0,NNE,9.2,-,N/A,,Clear,30,2012-10-22 05:16:00
9:56 PM,37.4,17.6,45,30.08,10.0,NE,10.4,-,N/A,,Clear,50,2012-10-22 05:56:00
10:16 PM,37.4,17.6,45,30.09,10.0,NNE,8.1,16.1,N/A,,Clear,30,2012-10-22 06:16:00
10:36 PM,37.4,17.6,45,30.09,10.0,NE,6.9,-,N/A,,Clear,40,2012-10-22 06:36:00
10:56 PM,37.4,17.6,45,30.09,10.0,NNE,11.5,18.4,N/A,,Clear,30,2012-10-22 06:56:00
11:16 PM,37.4,19.4,48,30.09,10.0,NNE,8.1,16.1,N/A,,Clear,30,2012-10-22 07:16:00
11:36 PM,37.4,19.4,48,30.09,10.0,NNE,8.1,-,N/A,,Clear,20,2012-10-22 07:36:00
11:56 PM,37.4,19.4,48,30.09,10.0,North,9.2,-,N/A,,Clear,10,2012-10-22 07:56:00